RUK60KQ EGSS-EGPH

Flight info

Callsign RUK60KQ
Flight time 0h 57m
Altitude 34000
Route UTAVA Q75 BUZAD T420 TNT UN57 POL UN601 RIBEL DCT INPIP
Aircraft B738/M-SDE2E3FGHIRWXY/LB1

Departure

Time 2026-04-21 21:04
Airport London Stansted Airport (EGSS)

Arrival

Time 2026-04-21 22:01
Airport Edinburgh Airport (EGPH)
Time Latitude Longitude Altitude Speed Heading
2026-04-21 20:31 51.89298 0.25858 357 ft 0 kts 43°
2026-04-21 20:42 51.89295 0.25854 357 ft 2 kts 43°
2026-04-21 20:43 51.89284 0.25836 357 ft 3 kts 43°
2026-04-21 20:43 51.89270 0.25815 357 ft 3 kts 43°
2026-04-21 20:43 51.89255 0.25795 357 ft 3 kts 27°
2026-04-21 20:43 51.89235 0.25788 357 ft 3 kts 353°
2026-04-21 20:44 51.89216 0.25800 357 ft 3 kts 322°
2026-04-21 20:44 51.89208 0.25812 357 ft 0 kts 313°
2026-04-21 20:49 51.89212 0.25804 357 ft 4 kts 312°
2026-04-21 20:49 51.89237 0.25760 357 ft 7 kts 312°
2026-04-21 20:49 51.89271 0.25699 357 ft 7 kts 313°
2026-04-21 20:49 51.89281 0.25681 357 ft 1 kts 313°
2026-04-21 20:50 51.89284 0.25676 357 ft 1 kts 313°
2026-04-21 20:50 51.89287 0.25671 357 ft 1 kts 313°
2026-04-21 20:50 51.89298 0.25651 357 ft 4 kts 313°
2026-04-21 20:50 51.89315 0.25623 357 ft 6 kts 313°
2026-04-21 20:51 51.89335 0.25547 357 ft 9 kts 253°
2026-04-21 20:51 51.89284 0.25454 357 ft 13 kts 223°
2026-04-21 20:51 51.89206 0.25337 357 ft 17 kts 223°
2026-04-21 20:51 51.89108 0.25191 357 ft 21 kts 223°
2026-04-21 20:52 51.89007 0.25038 357 ft 18 kts 223°
2026-04-21 20:52 51.88916 0.24901 357 ft 15 kts 223°
2026-04-21 20:52 51.88834 0.24778 357 ft 17 kts 223°
2026-04-21 20:52 51.88739 0.24635 357 ft 19 kts 223°
2026-04-21 20:53 51.88673 0.24536 357 ft 14 kts 223°
2026-04-21 20:53 51.88591 0.24414 357 ft 18 kts 223°
2026-04-21 20:53 51.88491 0.24264 357 ft 22 kts 223°
2026-04-21 20:53 51.88386 0.24106 357 ft 18 kts 223°
2026-04-21 20:54 51.88294 0.23967 357 ft 13 kts 223°
2026-04-21 20:54 51.88217 0.23851 357 ft 17 kts 223°
2026-04-21 20:54 51.88130 0.23721 357 ft 13 kts 223°
2026-04-21 20:54 51.88076 0.23641 357 ft 12 kts 223°
2026-04-21 20:55 51.88006 0.23535 357 ft 15 kts 223°
2026-04-21 20:55 51.87921 0.23407 357 ft 18 kts 223°
2026-04-21 20:55 51.87835 0.23279 357 ft 16 kts 223°
2026-04-21 20:55 51.87755 0.23159 357 ft 15 kts 223°
2026-04-21 20:56 51.87717 0.23045 357 ft 8 kts 287°
2026-04-21 20:56 51.87738 0.22992 357 ft 5 kts 309°
2026-04-21 20:56 51.87759 0.22952 357 ft 3 kts 311°
2026-04-21 20:56 51.87776 0.22923 357 ft 5 kts 312°
2026-04-21 20:57 51.87795 0.22889 357 ft 0 kts 312°
2026-04-21 20:58 51.87805 0.22870 357 ft 4 kts 312°
2026-04-21 20:58 51.87835 0.22818 357 ft 8 kts 312°
2026-04-21 20:59 51.87857 0.22777 357 ft 0 kts 312°
2026-04-21 20:59 51.87858 0.22777 357 ft 0 kts 312°
2026-04-21 21:01 51.87858 0.22776 357 ft 0 kts 312°
2026-04-21 21:02 51.87863 0.22768 357 ft 3 kts 312°
2026-04-21 21:02 51.87886 0.22728 357 ft 7 kts 312°
2026-04-21 21:02 51.87928 0.22664 357 ft 9 kts 342°
2026-04-21 21:02 51.87962 0.22687 357 ft 5 kts 43°
2026-04-21 21:03 51.87974 0.22705 357 ft 0 kts 43°
2026-04-21 21:03 51.88008 0.22755 357 ft 26 kts 43°
2026-04-21 21:03 51.88336 0.23248 357 ft 99 kts 43°
2026-04-21 21:04 51.88982 0.24220 472 ft 146 kts 43°
2026-04-21 21:04 51.89747 0.25372 1157 ft 155 kts 43°
2026-04-21 21:04 51.90569 0.26612 1844 ft 168 kts 43°
2026-04-21 21:04 51.91458 0.27941 2554 ft 181 kts 44°
2026-04-21 21:05 51.92454 0.29343 3226 ft 199 kts 38°
2026-04-21 21:05 51.93837 0.30005 3910 ft 221 kts 12°
2026-04-21 21:05 51.95443 0.29955 4598 ft 237 kts
2026-04-21 21:05 51.97111 0.29609 5245 ft 253 kts 353°
2026-04-21 21:06 51.98729 0.28233 5903 ft 272 kts 326°
2026-04-21 21:06 51.99906 0.25785 6567 ft 286 kts 301°
2026-04-21 21:06 52.00453 0.22539 7263 ft 305 kts 277°
2026-04-21 21:06 52.00488 0.19067 8010 ft 314 kts 268°
2026-04-21 21:07 52.00298 0.15481 8748 ft 322 kts 264°
2026-04-21 21:07 52.00005 0.11867 9476 ft 329 kts 261°
2026-04-21 21:07 51.99654 0.08146 10211 ft 336 kts 261°
2026-04-21 21:07 51.99276 0.04397 10937 ft 341 kts 260°
2026-04-21 21:08 51.98867 0.00562 11672 ft 344 kts 259°
2026-04-21 21:08 51.98495 -0.03269 12409 ft 347 kts 262°
2026-04-21 21:08 51.98164 -0.07077 13123 ft 348 kts 263°
2026-04-21 21:08 51.97838 -0.10967 13849 ft 354 kts 263°
2026-04-21 21:09 51.97514 -0.15016 14588 ft 363 kts 264°
2026-04-21 21:09 51.97199 -0.19091 15314 ft 370 kts 264°
2026-04-21 21:09 51.96876 -0.23294 16049 ft 376 kts 264°
2026-04-21 21:09 51.96551 -0.27502 16774 ft 381 kts 264°
2026-04-21 21:10 51.96216 -0.31770 17501 ft 384 kts 264°
2026-04-21 21:10 51.95871 -0.36083 18231 ft 386 kts 264°
2026-04-21 21:10 51.95517 -0.40399 18960 ft 386 kts 264°
2026-04-21 21:10 51.95149 -0.44739 19691 ft 386 kts 264°
2026-04-21 21:11 51.94988 -0.49030 20418 ft 381 kts 276°
2026-04-21 21:11 51.95606 -0.53125 21150 ft 375 kts 294°
2026-04-21 21:11 51.96981 -0.56694 21894 ft 370 kts 309°
2026-04-21 21:11 51.98776 -0.59627 22633 ft 367 kts 317°
2026-04-21 21:12 52.00787 -0.62192 23379 ft 366 kts 323°
2026-04-21 21:12 52.02889 -0.64501 24121 ft 370 kts 326°
2026-04-21 21:12 52.05106 -0.66718 24869 ft 372 kts 327°
2026-04-21 21:12 52.07350 -0.68826 25617 ft 382 kts 328°
2026-04-21 21:13 52.09690 -0.71006 26376 ft 390 kts 328°
2026-04-21 21:13 52.12081 -0.73250 27136 ft 397 kts 328°
2026-04-21 21:13 52.14458 -0.75488 27880 ft 402 kts 328°
2026-04-21 21:13 52.16906 -0.77798 28638 ft 406 kts 327°
2026-04-21 21:14 52.19326 -0.80116 29385 ft 408 kts 327°
2026-04-21 21:14 52.21770 -0.82481 30137 ft 408 kts 327°
2026-04-21 21:14 52.24203 -0.84883 30889 ft 408 kts 326°
2026-04-21 21:14 52.26634 -0.87317 31644 ft 406 kts 326°
2026-04-21 21:15 52.29028 -0.89727 32390 ft 405 kts 326°
2026-04-21 21:15 52.31407 -0.92126 33136 ft 402 kts 326°
2026-04-21 21:15 52.33792 -0.94528 33887 ft 399 kts 326°
2026-04-21 21:15 52.36151 -0.96902 34362 ft 404 kts 326°
2026-04-21 21:16 52.38564 -0.99328 34398 ft 416 kts 326°
2026-04-21 21:16 52.41090 -1.01836 34395 ft 425 kts 326°
2026-04-21 21:16 52.46158 -1.06867 34394 ft 426 kts 326°
2026-04-21 21:17 52.51198 -1.11851 34405 ft 424 kts 326°
2026-04-21 21:17 52.56224 -1.16914 34412 ft 423 kts 326°
2026-04-21 21:18 52.61251 -1.22039 34419 ft 422 kts 326°
2026-04-21 21:18 52.66237 -1.27093 34427 ft 423 kts 326°
2026-04-21 21:19 52.71217 -1.32191 34432 ft 423 kts 326°
2026-04-21 21:19 52.76205 -1.37335 34432 ft 423 kts 326°
2026-04-21 21:20 52.81195 -1.42514 34435 ft 423 kts 326°
2026-04-21 21:20 52.86171 -1.47705 34431 ft 424 kts 326°
2026-04-21 21:21 52.91202 -1.52849 34425 ft 424 kts 327°
2026-04-21 21:21 52.96283 -1.57863 34416 ft 425 kts 327°
2026-04-21 21:22 53.01405 -1.62718 34407 ft 427 kts 331°
2026-04-21 21:22 53.06836 -1.66786 34400 ft 429 kts 335°
2026-04-21 21:23 53.12383 -1.70467 34384 ft 431 kts 336°
2026-04-21 21:23 53.18016 -1.74004 34375 ft 432 kts 337°
2026-04-21 21:24 53.23638 -1.77499 34371 ft 432 kts 337°
2026-04-21 21:24 53.29280 -1.81018 34371 ft 433 kts 337°
2026-04-21 21:25 53.34909 -1.84555 34374 ft 433 kts 337°
2026-04-21 21:25 53.40542 -1.88123 34381 ft 434 kts 337°
2026-04-21 21:26 53.46193 -1.91732 34394 ft 435 kts 337°
2026-04-21 21:26 53.51861 -1.95378 34401 ft 435 kts 337°
2026-04-21 21:27 53.57515 -1.99040 34408 ft 436 kts 337°
2026-04-21 21:27 53.63158 -2.02732 34413 ft 436 kts 336°
2026-04-21 21:28 53.68798 -2.06547 34418 ft 437 kts 336°
2026-04-21 21:29 53.77270 -2.12294 34426 ft 437 kts 337°
2026-04-21 21:29 53.82904 -2.16136 34433 ft 437 kts 336°
2026-04-21 21:30 53.88543 -2.20039 34441 ft 437 kts 336°
2026-04-21 21:30 53.94173 -2.23867 34472 ft 437 kts 336°
2026-04-21 21:31 53.99791 -2.27764 34472 ft 438 kts 336°
2026-04-21 21:31 54.05457 -2.31727 34434 ft 438 kts 336°
2026-04-21 21:31 54.08266 -2.33667 34109 ft 443 kts 336°
2026-04-21 21:32 54.11138 -2.35651 33658 ft 443 kts 336°
2026-04-21 21:32 54.14002 -2.37651 33186 ft 442 kts 336°
2026-04-21 21:32 54.16814 -2.39624 32717 ft 441 kts 336°
2026-04-21 21:32 54.19662 -2.41625 32240 ft 439 kts 336°
2026-04-21 21:33 54.22493 -2.43611 31764 ft 438 kts 335°
2026-04-21 21:33 54.25294 -2.45570 31292 ft 437 kts 336°
2026-04-21 21:33 54.28127 -2.47547 30814 ft 437 kts 336°
2026-04-21 21:33 54.30936 -2.49504 30335 ft 436 kts 336°
2026-04-21 21:34 54.33755 -2.51463 29862 ft 435 kts 336°
2026-04-21 21:34 54.36567 -2.53418 29386 ft 436 kts 336°
2026-04-21 21:34 54.39356 -2.55368 28909 ft 437 kts 336°
2026-04-21 21:34 54.42196 -2.57373 28430 ft 439 kts 336°
2026-04-21 21:35 54.45011 -2.59379 27975 ft 441 kts 336°
2026-04-21 21:35 54.47870 -2.61404 27518 ft 444 kts 336°
2026-04-21 21:35 54.49771 -2.62750 27218 ft 447 kts 337°
2026-04-21 21:35 54.53614 -2.65485 26610 ft 451 kts 337°
2026-04-21 21:36 54.55551 -2.66874 26309 ft 453 kts 337°
2026-04-21 21:36 54.58488 -2.68979 25856 ft 457 kts 337°
2026-04-21 21:36 54.61422 -2.71062 25408 ft 460 kts 338°
2026-04-21 21:36 54.64418 -2.73189 24954 ft 464 kts 338°
2026-04-21 21:37 54.67393 -2.75309 24506 ft 467 kts 338°
2026-04-21 21:37 54.70427 -2.77482 24051 ft 469 kts 338°
2026-04-21 21:37 54.73448 -2.79633 23602 ft 472 kts 338°
2026-04-21 21:37 54.76507 -2.81798 23149 ft 475 kts 338°
2026-04-21 21:38 54.79553 -2.83949 22701 ft 477 kts 339°
2026-04-21 21:38 54.82579 -2.86099 22248 ft 447 kts 338°
2026-04-21 21:38 54.85307 -2.88071 21802 ft 413 kts 338°
2026-04-21 21:38 54.87893 -2.89938 21344 ft 386 kts 338°
2026-04-21 21:39 54.90286 -2.91670 20892 ft 366 kts 339°
2026-04-21 21:39 54.92596 -2.93351 20435 ft 352 kts 339°
2026-04-21 21:39 54.94828 -2.94988 19980 ft 343 kts 339°
2026-04-21 21:39 54.96988 -2.96585 19532 ft 338 kts 339°
2026-04-21 21:40 54.99149 -2.98189 19079 ft 335 kts 339°
2026-04-21 21:40 55.01272 -2.99739 18631 ft 332 kts 339°
2026-04-21 21:40 55.03416 -3.01290 18176 ft 329 kts 339°
2026-04-21 21:40 55.05518 -3.02792 17728 ft 327 kts 340°
2026-04-21 21:41 55.07630 -3.04274 17275 ft 325 kts 340°
2026-04-21 21:41 55.09701 -3.05720 16829 ft 323 kts 340°
2026-04-21 21:41 55.11797 -3.07185 16375 ft 321 kts 340°
2026-04-21 21:41 55.13864 -3.08635 15924 ft 319 kts 341°
2026-04-21 21:42 55.15900 -3.10076 15477 ft 317 kts 340°
2026-04-21 21:42 55.17958 -3.11542 15022 ft 315 kts 340°
2026-04-21 21:42 55.19948 -3.12971 14904 ft 306 kts 340°
2026-04-21 21:42 55.21920 -3.14396 14775 ft 315 kts 340°
2026-04-21 21:43 55.23977 -3.15908 14629 ft 322 kts 340°
2026-04-21 21:43 55.26040 -3.17421 14542 ft 324 kts 342°
2026-04-21 21:43 55.28232 -3.18263 14537 ft 321 kts 356°
2026-04-21 21:43 55.30452 -3.18454 14549 ft 321 kts
2026-04-21 21:44 55.32716 -3.18363 14555 ft 322 kts
2026-04-21 21:44 55.34945 -3.18159 14542 ft 322 kts
2026-04-21 21:44 55.37172 -3.17908 14535 ft 323 kts
2026-04-21 21:44 55.39398 -3.17638 14537 ft 323 kts
2026-04-21 21:45 55.41645 -3.17358 14539 ft 323 kts
2026-04-21 21:45 55.43907 -3.17072 14541 ft 323 kts
2026-04-21 21:45 55.46126 -3.16790 14544 ft 323 kts
2026-04-21 21:45 55.48374 -3.16504 14547 ft 323 kts
2026-04-21 21:46 55.50623 -3.16217 14550 ft 323 kts
2026-04-21 21:46 55.52845 -3.15934 14555 ft 323 kts
2026-04-21 21:46 55.55099 -3.15646 14501 ft 324 kts
2026-04-21 21:46 55.57316 -3.15364 14362 ft 316 kts
2026-04-21 21:47 55.59480 -3.15098 14103 ft 302 kts
2026-04-21 21:47 55.61535 -3.14861 13846 ft 291 kts
2026-04-21 21:47 55.63537 -3.14641 13592 ft 284 kts
2026-04-21 21:47 55.65478 -3.14434 13341 ft 280 kts
2026-04-21 21:48 55.67425 -3.14230 13088 ft 277 kts
2026-04-21 21:48 55.69329 -3.14033 12839 ft 275 kts
2026-04-21 21:48 55.71238 -3.13837 12588 ft 273 kts
2026-04-21 21:48 55.73130 -3.13710 12333 ft 274 kts
2026-04-21 21:49 55.74970 -3.14590 12075 ft 280 kts 336°
2026-04-21 21:49 55.76489 -3.16817 11810 ft 287 kts 311°
2026-04-21 21:49 55.77380 -3.19963 11522 ft 290 kts 286°
2026-04-21 21:49 55.77488 -3.23535 11230 ft 289 kts 260°
2026-04-21 21:50 55.76797 -3.26802 10942 ft 284 kts 235°
2026-04-21 21:50 55.75443 -3.29248 10653 ft 276 kts 210°
2026-04-21 21:50 55.73678 -3.30492 10369 ft 268 kts 188°
2026-04-21 21:50 55.71865 -3.30935 10087 ft 264 kts 180°
2026-04-21 21:51 55.70034 -3.31114 9792 ft 262 kts 178°
2026-04-21 21:51 55.68210 -3.31202 9460 ft 261 kts 176°
2026-04-21 21:51 55.66408 -3.31358 9076 ft 264 kts 184°
2026-04-21 21:51 55.64693 -3.32615 8701 ft 270 kts 211°
2026-04-21 21:52 55.63430 -3.35067 8337 ft 276 kts 237°
2026-04-21 21:52 55.62845 -3.38282 7975 ft 279 kts 263°
2026-04-21 21:52 55.63063 -3.41679 7602 ft 277 kts 289°
2026-04-21 21:52 55.64017 -3.44555 7249 ft 272 kts 313°
2026-04-21 21:53 55.65346 -3.46878 7093 ft 262 kts 322°
2026-04-21 21:53 55.66724 -3.48918 7025 ft 260 kts 325°
2026-04-21 21:53 55.68143 -3.50916 7006 ft 259 kts 326°
2026-04-21 21:53 55.69570 -3.52894 7002 ft 260 kts 326°
2026-04-21 21:54 55.70983 -3.54848 7000 ft 260 kts 326°
2026-04-21 21:54 55.72425 -3.56842 6998 ft 260 kts 326°
2026-04-21 21:54 55.73865 -3.58827 6709 ft 269 kts 326°
2026-04-21 21:54 55.75306 -3.60810 6202 ft 260 kts 326°
2026-04-21 21:55 55.76710 -3.62756 5694 ft 254 kts 326°
2026-04-21 21:55 55.78116 -3.64714 5188 ft 254 kts 326°
2026-04-21 21:55 55.79485 -3.66630 4675 ft 240 kts 326°
2026-04-21 21:55 55.80738 -3.68283 4133 ft 213 kts 337°
2026-04-21 21:56 55.82084 -3.68813 3625 ft 192 kts
2026-04-21 21:56 55.83349 -3.68094 3262 ft 194 kts 31°
2026-04-21 21:56 55.84422 -3.66784 3152 ft 182 kts 43°
2026-04-21 21:56 55.85288 -3.65244 3057 ft 171 kts 51°
2026-04-21 21:57 55.86005 -3.63624 2937 ft 166 kts 56°
2026-04-21 21:57 55.86659 -3.61912 2812 ft 165 kts 58°
2026-04-21 21:57 55.87261 -3.60202 2666 ft 161 kts 59°
2026-04-21 21:57 55.87825 -3.58546 2482 ft 153 kts 60°
2026-04-21 21:58 55.88356 -3.56965 2295 ft 147 kts 60°
2026-04-21 21:58 55.88874 -3.55418 2133 ft 145 kts 60°
2026-04-21 21:58 55.89401 -3.53855 1960 ft 146 kts 60°
2026-04-21 21:58 55.89926 -3.52302 1777 ft 148 kts 59°
2026-04-21 21:59 55.90456 -3.50734 1610 ft 149 kts 59°
2026-04-21 21:59 55.90974 -3.49203 1480 ft 137 kts 59°
2026-04-21 21:59 55.91452 -3.47791 1324 ft 129 kts 59°
2026-04-21 21:59 55.91906 -3.46446 1168 ft 127 kts 59°
2026-04-21 22:00 55.92361 -3.45096 1011 ft 126 kts 59°
2026-04-21 22:00 55.92810 -3.43763 820 ft 127 kts 59°
2026-04-21 22:00 55.93265 -3.42412 636 ft 126 kts 59°
2026-04-21 22:00 55.93712 -3.41085 457 ft 124 kts 59°
2026-04-21 22:01 55.94153 -3.39775 315 ft 122 kts 59°
2026-04-21 22:01 55.94586 -3.38489 170 ft 121 kts 59°
2026-04-21 22:01 55.94983 -3.37303 144 ft 85 kts 59°
2026-04-21 22:01 55.95177 -3.36727 144 ft 33 kts 59°
2026-04-21 22:02 55.95259 -3.36465 144 ft 15 kts 82°
2026-04-21 22:02 55.95230 -3.36389 144 ft 5 kts 146°
2026-04-21 22:02 55.95209 -3.36365 144 ft 3 kts 148°
2026-04-21 22:02 55.95180 -3.36333 144 ft 7 kts 148°
2026-04-21 22:03 55.95126 -3.36319 144 ft 9 kts 213°
2026-04-21 22:03 55.95078 -3.36400 144 ft 10 kts 188°
2026-04-21 22:03 55.95010 -3.36408 144 ft 12 kts 226°
2026-04-21 22:03 55.94965 -3.36538 144 ft 14 kts 239°
2026-04-21 22:04 55.94933 -3.36599 144 ft 4 kts 172°
2026-04-21 22:04 55.94909 -3.36575 144 ft 4 kts 149°
2026-04-21 22:04 55.94881 -3.36545 144 ft 1 kts 149°